HAZ2634 ZPPP-ZSHC

Flight info

Callsign HAZ2634
Flight time N/A
Altitude 37100
Route NODIB W137 LPS A581 IDGAG W80 XSH DCT JDZ DCT TXN G204 OREXA
Aircraft B738/M-SDE2E3FGHIRWXY/LB1

Departure

Time N/A
Airport Kunming Changshui International Airport (ZPPP)

Arrival

Time 2026-05-04 15:50
Airport Hangzhou Xiaoshan International Airport (ZSHC)
Time Latitude Longitude Altitude Speed Heading
2026-05-04 15:04 28.83565 117.57497 23715 ft 449 kts 357°
2026-05-04 15:05 28.86664 117.57634 23727 ft 443 kts 352°
2026-05-04 15:05 28.89709 117.57431 23723 ft 439 kts 347°
2026-05-04 15:05 28.92752 117.57055 23715 ft 437 kts 345°
2026-05-04 15:05 28.95775 117.56625 23713 ft 436 kts 345°
2026-05-04 15:06 28.98780 117.56177 23714 ft 439 kts 344°
2026-05-04 15:06 29.01799 117.55719 23713 ft 436 kts 345°
2026-05-04 15:06 29.04827 117.55251 23707 ft 436 kts 344°
2026-05-04 15:07 29.10830 117.54301 23699 ft 435 kts 345°
2026-05-04 15:07 29.13855 117.53814 23690 ft 437 kts 344°
2026-05-04 15:07 29.16876 117.53322 23698 ft 436 kts 345°
2026-05-04 15:07 29.19888 117.52827 23687 ft 436 kts 345°
2026-05-04 15:08 29.22862 117.52335 23691 ft 435 kts 345°
2026-05-04 15:08 29.25868 117.51832 23691 ft 434 kts 345°
2026-05-04 15:08 29.28856 117.51324 23689 ft 433 kts 345°
2026-05-04 15:08 29.31835 117.50811 23699 ft 435 kts 344°
2026-05-04 15:09 29.34849 117.50291 23695 ft 434 kts 345°
2026-05-04 15:09 29.37831 117.49773 23687 ft 434 kts 345°
2026-05-04 15:09 29.40803 117.49250 23688 ft 435 kts 345°
2026-05-04 15:10 29.46811 117.48180 23203 ft 432 kts 345°
2026-05-04 15:10 29.49745 117.47651 22819 ft 423 kts 345°
2026-05-04 15:10 29.55455 117.46590 22042 ft 413 kts 345°
2026-05-04 15:11 29.58299 117.46060 21799 ft 412 kts 347°
2026-05-04 15:11 29.61198 117.45801 21790 ft 426 kts 354°
2026-05-04 15:11 29.64193 117.46233 21789 ft 438 kts 11°
2026-05-04 15:11 29.66987 117.47628 21791 ft 447 kts 28°
2026-05-04 15:12 29.69402 117.49944 21795 ft 454 kts 45°
2026-05-04 15:12 29.71162 117.52940 21792 ft 459 kts 62°
2026-05-04 15:12 29.72193 117.56385 21667 ft 462 kts 75°
2026-05-04 15:12 29.72695 117.60042 21157 ft 460 kts 85°
2026-05-04 15:13 29.72737 117.63663 20659 ft 453 kts 92°
2026-05-04 15:13 29.72574 117.67256 20165 ft 447 kts 94°
2026-05-04 15:13 29.72388 117.70802 19815 ft 437 kts 93°
2026-05-04 15:13 29.72247 117.74287 19807 ft 438 kts 92°
2026-05-04 15:14 29.72170 117.77802 19805 ft 442 kts 91°
2026-05-04 15:14 29.72160 117.81322 19804 ft 442 kts 90°
2026-05-04 15:14 29.72205 117.84827 19802 ft 442 kts 89°
2026-05-04 15:14 29.72293 117.88367 19806 ft 443 kts 88°
2026-05-04 15:15 29.72410 117.91895 19805 ft 443 kts 87°
2026-05-04 15:15 29.72546 117.95414 19806 ft 444 kts 87°
2026-05-04 15:15 29.72696 117.98991 19810 ft 444 kts 87°
2026-05-04 15:16 29.73009 118.06018 19809 ft 442 kts 86°
2026-05-04 15:16 29.73170 118.09573 19811 ft 443 kts 86°
2026-05-04 15:16 29.73491 118.16646 19529 ft 445 kts 86°
2026-05-04 15:17 29.73647 118.20143 19088 ft 439 kts 86°
2026-05-04 15:17 29.73754 118.27040 18204 ft 427 kts 92°
2026-05-04 15:17 29.73562 118.30402 17776 ft 423 kts 94°
2026-05-04 15:18 29.73268 118.33791 17339 ft 420 kts 96°
2026-05-04 15:18 29.72939 118.37088 16924 ft 415 kts 96°
2026-05-04 15:18 29.72603 118.40346 16815 ft 409 kts 96°
2026-05-04 15:19 29.71947 118.46918 16817 ft 416 kts 96°
2026-05-04 15:19 29.71633 118.50202 16824 ft 415 kts 96°
2026-05-04 15:19 29.71018 118.56802 16807 ft 415 kts 95°
2026-05-04 15:20 29.70717 118.60073 16582 ft 415 kts 95°
2026-05-04 15:20 29.70414 118.63379 16333 ft 410 kts 95°
2026-05-04 15:20 29.70117 118.66616 16093 ft 408 kts 96°
2026-05-04 15:20 29.69817 118.69862 15861 ft 406 kts 96°
2026-05-04 15:21 29.69522 118.73071 15618 ft 405 kts 96°
2026-05-04 15:21 29.69230 118.76284 15376 ft 402 kts 96°
2026-05-04 15:21 29.68672 118.82588 14934 ft 397 kts 94°
2026-05-04 15:22 29.68764 118.85760 14920 ft 394 kts 82°
2026-05-04 15:22 29.69235 118.88844 14926 ft 395 kts 77°
2026-05-04 15:22 29.70538 118.94967 14930 ft 396 kts 75°
2026-05-04 15:23 29.71189 118.98051 14925 ft 395 kts 76°
2026-05-04 15:23 29.71794 119.01110 14932 ft 396 kts 77°
2026-05-04 15:23 29.72379 119.04244 14646 ft 399 kts 77°
2026-05-04 15:23 29.72932 119.07331 14165 ft 393 kts 78°
2026-05-04 15:24 29.73984 119.13395 13191 ft 381 kts 78°
2026-05-04 15:24 29.74983 119.19229 12932 ft 370 kts 78°
2026-05-04 15:25 29.75485 119.22144 12930 ft 377 kts 78°
2026-05-04 15:25 29.75997 119.25108 12932 ft 380 kts 78°
2026-05-04 15:25 29.76511 119.28084 12932 ft 379 kts 78°
2026-05-04 15:26 29.77536 119.34035 13010 ft 379 kts 78°
2026-05-04 15:26 29.78045 119.36993 13078 ft 378 kts 78°
2026-05-04 15:26 29.79070 119.42947 12819 ft 380 kts 78°
2026-05-04 15:27 29.79579 119.45913 12615 ft 377 kts 78°
2026-05-04 15:27 29.80586 119.51791 12196 ft 375 kts 78°
2026-05-04 15:28 29.81587 119.57659 11701 ft 369 kts 78°
2026-05-04 15:28 29.82078 119.60552 11455 ft 367 kts 77°
2026-05-04 15:28 29.83046 119.66263 10972 ft 363 kts 78°
2026-05-04 15:29 29.83526 119.69099 10729 ft 361 kts 78°
2026-05-04 15:30 29.85410 119.80244 9012 ft 349 kts 78°
2026-05-04 15:30 29.86775 119.88377 7900 ft 341 kts 78°
2026-05-04 15:31 29.87679 119.93780 7893 ft 341 kts 78°
2026-05-04 15:31 29.88110 119.96375 7892 ft 322 kts 78°
2026-05-04 15:32 29.89277 120.03382 7895 ft 279 kts 78°
2026-05-04 15:32 29.90202 120.07745 7894 ft 279 kts 65°
2026-05-04 15:33 29.92055 120.11659 7891 ft 279 kts 58°
2026-05-04 15:34 29.94940 120.17496 7881 ft 280 kts 60°
2026-05-04 15:34 29.95871 120.19469 7882 ft 281 kts 60°
2026-05-04 15:34 29.97737 120.23434 7884 ft 278 kts 60°
2026-05-04 15:35 29.99588 120.27351 7627 ft 280 kts 60°
2026-05-04 15:35 30.00491 120.29311 7393 ft 276 kts 61°
2026-05-04 15:35 30.01364 120.31267 7139 ft 275 kts 62°
2026-05-04 15:36 30.03098 120.35190 6623 ft 272 kts 61°
2026-05-04 15:36 30.03967 120.37145 6372 ft 272 kts 62°
2026-05-04 15:36 30.04824 120.39067 6111 ft 271 kts 61°
2026-05-04 15:37 30.05690 120.41010 5825 ft 273 kts 62°
2026-05-04 15:37 30.06556 120.42952 5522 ft 272 kts 62°
2026-05-04 15:37 30.07419 120.44893 5228 ft 270 kts 62°
2026-05-04 15:37 30.08273 120.46819 4950 ft 267 kts 62°
2026-05-04 15:38 30.09093 120.48669 4868 ft 254 kts 62°
2026-05-04 15:38 30.09872 120.50425 4872 ft 239 kts 62°
2026-05-04 15:38 30.10613 120.52097 4881 ft 229 kts 62°
2026-05-04 15:38 30.11342 120.53740 4885 ft 229 kts 62°
2026-05-04 15:39 30.12078 120.55398 4750 ft 233 kts 62°
2026-05-04 15:39 30.12812 120.57056 4466 ft 233 kts 62°
2026-05-04 15:39 30.14289 120.60399 3921 ft 233 kts 63°
2026-05-04 15:40 30.15008 120.62030 3880 ft 227 kts 63°
2026-05-04 15:40 30.15726 120.63659 3883 ft 229 kts 63°
2026-05-04 15:40 30.16450 120.65299 3879 ft 229 kts 64°
2026-05-04 15:40 30.17176 120.66944 3883 ft 229 kts 64°
2026-05-04 15:41 30.17900 120.68582 3773 ft 231 kts 63°
2026-05-04 15:41 30.18634 120.70245 3516 ft 230 kts 64°
2026-05-04 15:41 30.19354 120.71877 3281 ft 228 kts 64°
2026-05-04 15:41 30.20071 120.73505 3036 ft 228 kts 64°
2026-05-04 15:42 30.20881 120.75097 2782 ft 228 kts 53°
2026-05-04 15:42 30.22100 120.76197 2525 ft 228 kts 18°
2026-05-04 15:42 30.23652 120.76274 2286 ft 224 kts 343°
2026-05-04 15:42 30.25067 120.75545 2051 ft 220 kts 330°
2026-05-04 15:43 30.26401 120.74721 1966 ft 211 kts 332°
2026-05-04 15:43 30.27675 120.73975 1983 ft 200 kts 332°
2026-05-04 15:43 30.28932 120.73250 1976 ft 201 kts 332°
2026-05-04 15:43 30.30175 120.72527 1974 ft 197 kts 332°
2026-05-04 15:44 30.31388 120.71817 1976 ft 195 kts 332°
2026-05-04 15:44 30.32597 120.71072 1971 ft 196 kts 326°
2026-05-04 15:44 30.33537 120.69991 1971 ft 192 kts 293°
2026-05-04 15:44 30.33776 120.68510 1979 ft 188 kts 262°
2026-05-04 15:45 30.33464 120.67089 1968 ft 175 kts 244°
2026-05-04 15:45 30.32929 120.65864 1881 ft 166 kts 239°
2026-05-04 15:45 30.32389 120.64696 1882 ft 169 kts 240°
2026-05-04 15:45 30.31817 120.63416 1875 ft 181 kts 241°
2026-05-04 15:46 30.31245 120.62114 1874 ft 183 kts 240°
2026-05-04 15:46 30.30665 120.60799 1876 ft 183 kts 240°
2026-05-04 15:46 30.30078 120.59478 1872 ft 183 kts 240°
2026-05-04 15:46 30.29511 120.58199 1873 ft 175 kts 240°
2026-05-04 15:47 30.28986 120.57004 1866 ft 158 kts 240°
2026-05-04 15:47 30.28514 120.55936 1894 ft 143 kts 240°
2026-05-04 15:47 30.28053 120.54903 1869 ft 145 kts 240°
2026-05-04 15:47 30.27587 120.53856 1711 ft 147 kts 240°
2026-05-04 15:48 30.27125 120.52811 1509 ft 144 kts 240°
2026-05-04 15:48 30.26667 120.51784 1321 ft 144 kts 240°
2026-05-04 15:48 30.25750 120.49720 934 ft 144 kts 241°
2026-05-04 15:49 30.25286 120.48677 740 ft 145 kts 241°
2026-05-04 15:49 30.24830 120.47653 550 ft 145 kts 242°
2026-05-04 15:49 30.24367 120.46610 345 ft 145 kts 241°
2026-05-04 15:49 30.23889 120.45589 140 ft 143 kts 242°
2026-05-04 15:50 30.23437 120.44552 44 ft 141 kts 242°
2026-05-04 15:50 30.23010 120.43619 37 ft 109 kts 244°
2026-05-04 15:50 30.22768 120.43053 34 ft 43 kts 246°
2026-05-04 15:50 30.22712 120.42794 35 ft 29 kts 266°
2026-05-04 15:51 30.22707 120.42666 35 ft 0 kts 275°
2026-05-04 15:52 30.22711 120.42641 35 ft 7 kts 294°
2026-05-04 15:52 30.22754 120.42610 36 ft 6 kts
2026-05-04 15:53 30.22784 120.42635 37 ft 4 kts 56°
2026-05-04 15:53 30.22800 120.42664 37 ft 3 kts 59°
2026-05-04 15:53 30.22812 120.42688 37 ft 4 kts 62°
2026-05-04 15:53 30.22842 120.42755 36 ft 11 kts 64°
2026-05-04 15:54 30.22880 120.42843 34 ft 12 kts 64°
2026-05-04 15:54 30.22922 120.42942 35 ft 17 kts 64°
2026-05-04 15:54 30.22993 120.43101 34 ft 26 kts 61°
2026-05-04 15:54 30.23059 120.43252 36 ft 19 kts 65°
2026-05-04 15:55 30.23117 120.43387 38 ft 17 kts 62°
2026-05-04 15:55 30.23174 120.43510 38 ft 17 kts 63°
2026-05-04 15:55 30.23226 120.43630 38 ft 16 kts 64°
2026-05-04 15:55 30.23286 120.43764 38 ft 15 kts 63°
2026-05-04 15:56 30.23331 120.43867 37 ft 12 kts 64°
2026-05-04 15:56 30.23369 120.43950 35 ft 10 kts 62°
2026-05-04 15:56 30.23427 120.43996 34 ft 10 kts 347°
2026-05-04 15:56 30.23491 120.43958 35 ft 10 kts 332°
2026-05-04 15:57 30.23585 120.43902 36 ft 19 kts 333°
2026-05-04 15:57 30.23733 120.43815 38 ft 26 kts 332°
2026-05-04 15:57 30.23895 120.43720 38 ft 25 kts 333°
2026-05-04 15:57 30.24053 120.43628 37 ft 25 kts 330°
2026-05-04 15:58 30.24208 120.43536 34 ft 23 kts 334°
2026-05-04 15:58 30.24335 120.43461 34 ft 19 kts 332°
2026-05-04 15:58 30.24447 120.43395 34 ft 16 kts 333°
2026-05-04 15:58 30.24526 120.43312 35 ft 15 kts 270°
2026-05-04 15:59 30.24487 120.43200 34 ft 15 kts 242°
2026-05-04 15:59 30.24430 120.43072 36 ft 18 kts 243°
2026-05-04 15:59 30.24374 120.42947 38 ft 17 kts 243°
2026-05-04 15:59 30.24318 120.42825 38 ft 16 kts 242°
2026-05-04 16:00 30.24275 120.42737 38 ft 7 kts 240°
2026-05-04 16:00 30.24248 120.42682 38 ft 7 kts 240°
2026-05-04 16:00 30.24226 120.42627 38 ft 6 kts 250°
2026-05-04 16:00 30.24200 120.42592 38 ft 5 kts 214°
2026-05-04 16:01 30.24168 120.42594 38 ft 4 kts 152°
2026-05-04 16:01 30.24144 120.42615 38 ft 4 kts 142°
2026-05-04 16:01 30.24122 120.42636 38 ft 3 kts 142°
2026-05-04 16:01 30.24119 120.42638 38 ft 0 kts 143°